Time,TemperatureF,DewpointF,PressureIn,WindDirection,WindDirectionDegrees,WindSpeedMPH,WindSpeedGustMPH,Humidity,HourlyPrecipIn,Conditions,Clouds,dailyrainin,SolarRadiationWatts/m^2,SoftwareType,DateUTC
2013-02-05 00:00:00,40.7,27.1,30.04,SSW,199,2.0,3.0,58,0.00,,,0.00,0,WeatherCatV1.10B1570,2013-02-05 05:00:00,
2013-02-05 00:05:00,40.7,27.1,30.04,SSW,199,3.0,4.0,58,0.00,,,0.00,0,WeatherCatV1.10B1570,2013-02-05 05:05:00,
2013-02-05 00:10:00,40.7,27.1,30.03,SSW,198,3.0,3.0,58,0.00,,,0.00,0,WeatherCatV1.10B1570,2013-02-05 05:10:00,
2013-02-05 00:15:00,40.8,27.6,30.03,SSW,198,2.0,3.0,59,0.00,,,0.00,0,WeatherCatV1.10B1570,2013-02-05 05:15:00,
2013-02-05 00:20:00,40.8,27.2,30.02,SSW,200,0.0,3.0,58,0.00,,,0.00,0,WeatherCatV1.10B1570,2013-02-05 05:20:00,
2013-02-05 00:25:00,40.7,27.5,30.02,SSW,205,1.0,2.0,59,0.00,,,0.00,0,WeatherCatV1.10B1570,2013-02-05 05:25:00,
2013-02-05 00:30:00,40.7,27.5,30.02,SSW,211,2.0,4.0,59,0.00,,,0.00,0,WeatherCatV1.10B1570,2013-02-05 05:30:00,
2013-02-05 00:35:00,40.8,27.2,30.02,SSW,199,1.0,4.0,58,0.00,,,0.00,0,WeatherCatV1.10B1570,2013-02-05 05:35:00,
2013-02-05 00:40:00,40.7,27.5,30.02,SSW,196,2.0,4.0,59,0.00,,,0.00,0,WeatherCatV1.10B1570,2013-02-05 05:40:00,
2013-02-05 00:45:00,40.7,27.5,30.02,SSW,197,2.0,3.0,59,0.00,,,0.00,0,WeatherCatV1.10B1570,2013-02-05 05:45:00,
2013-02-05 00:50:00,40.6,27.4,30.01,SSW,192,1.0,3.0,59,0.00,,,0.00,0,WeatherCatV1.10B1570,2013-02-05 05:50:00,
2013-02-05 00:55:00,40.5,27.7,30.01,SSW,192,2.0,3.0,60,0.00,,,0.00,0,WeatherCatV1.10B1570,2013-02-05 05:55:00,
2013-02-05 01:00:00,40.5,27.3,30.01,South,188,1.0,3.0,59,0.00,,,0.00,0,WeatherCatV1.10B1570,2013-02-05 06:00:00,
2013-02-05 01:05:00,40.5,27.7,30.01,South,188,1.0,3.0,60,0.00,,,0.00,0,WeatherCatV1.10B1570,2013-02-05 06:05:00,
2013-02-05 01:10:00,40.4,27.6,30.01,South,188,3.0,3.0,60,0.00,,,0.00,0,WeatherCatV1.10B1570,2013-02-05 06:10:00,
2013-02-05 01:15:00,40.4,27.6,30.01,South,190,1.0,2.0,60,0.00,,,0.00,0,WeatherCatV1.10B1570,2013-02-05 06:15:00,
2013-02-05 01:20:00,40.3,27.9,30.00,South,190,0.0,1.0,61,0.00,,,0.00,0,WeatherCatV1.10B1570,2013-02-05 06:20:00,
2013-02-05 01:25:00,40.2,27.8,30.00,South,190,0.0,1.0,61,0.00,,,0.00,0,WeatherCatV1.10B1570,2013-02-05 06:25:00,
2013-02-05 01:30:00,40.1,28.1,30.00,South,190,1.0,1.0,62,0.00,,,0.00,0,WeatherCatV1.10B1570,2013-02-05 06:30:00,
2013-02-05 01:35:00,39.9,28.0,30.00,South,190,0.0,1.0,62,0.00,,,0.00,0,WeatherCatV1.10B1570,2013-02-05 06:35:00,
2013-02-05 01:40:00,39.9,28.0,30.00,South,190,0.0,1.0,62,0.00,,,0.00,0,WeatherCatV1.10B1570,2013-02-05 06:40:00,
2013-02-05 01:45:00,39.8,27.9,30.00,South,190,0.0,1.0,62,0.00,,,0.00,0,WeatherCatV1.10B1570,2013-02-05 06:45:00,
2013-02-05 01:50:00,39.6,28.1,30.00,South,190,1.0,2.0,63,0.00,,,0.00,0,WeatherCatV1.10B1570,2013-02-05 06:50:00,
2013-02-05 01:55:00,39.5,28.0,30.00,South,190,0.0,0.0,63,0.00,,,0.00,0,WeatherCatV1.10B1570,2013-02-05 06:55:00,
2013-02-05 02:00:00,39.4,27.9,30.00,South,190,0.0,0.0,63,0.00,,,0.00,0,WeatherCatV1.10B1570,2013-02-05 07:00:00,
2013-02-05 02:05:00,39.3,27.8,30.00,South,190,1.0,2.0,63,0.00,,,0.00,0,WeatherCatV1.10B1570,2013-02-05 07:05:00,
2013-02-05 02:10:00,39.0,28.2,30.00,South,190,0.0,1.0,65,0.00,,,0.00,0,WeatherCatV1.10B1570,2013-02-05 07:10:00,
2013-02-05 02:15:00,38.9,28.2,30.00,South,190,0.0,0.0,65,0.00,,,0.00,0,WeatherCatV1.10B1570,2013-02-05 07:15:00,
2013-02-05 02:20:00,38.8,28.1,30.00,South,190,0.0,1.0,65,0.00,,,0.00,0,WeatherCatV1.10B1570,2013-02-05 07:20:00,
2013-02-05 02:25:00,38.6,28.2,30.00,South,190,0.0,1.0,66,0.00,,,0.00,0,WeatherCatV1.10B1570,2013-02-05 07:25:00,
2013-02-05 02:30:00,38.4,28.0,30.00,South,190,0.0,1.0,66,0.00,,,0.00,0,WeatherCatV1.10B1570,2013-02-05 07:30:00,
2013-02-05 02:35:00,38.5,28.1,29.99,South,190,0.0,1.0,66,0.00,,,0.00,0,WeatherCatV1.10B1570,2013-02-05 07:35:00,
2013-02-05 02:40:00,38.5,28.1,29.99,South,190,1.0,2.0,66,0.00,,,0.00,0,WeatherCatV1.10B1570,2013-02-05 07:40:00,
2013-02-05 02:45:00,38.5,28.1,29.99,South,190,1.0,2.0,66,0.00,,,0.00,0,WeatherCatV1.10B1570,2013-02-05 07:45:00,
2013-02-05 02:50:00,38.6,28.6,29.99,South,190,2.0,3.0,67,0.00,,,0.00,0,WeatherCatV1.10B1570,2013-02-05 07:50:00,
2013-02-05 02:55:00,38.7,28.0,29.99,South,190,0.0,2.0,65,0.00,,,0.00,0,WeatherCatV1.10B1570,2013-02-05 07:55:00,
2013-02-05 03:00:00,38.9,28.2,29.98,South,190,1.0,2.0,65,0.00,,,0.00,0,WeatherCatV1.10B1570,2013-02-05 08:00:00,
2013-02-05 03:05:00,38.8,28.4,29.98,South,190,0.0,0.0,66,0.00,,,0.00,0,WeatherCatV1.10B1570,2013-02-05 08:05:00,
2013-02-05 03:10:00,38.8,28.1,29.98,South,190,0.0,2.0,65,0.00,,,0.00,0,WeatherCatV1.10B1570,2013-02-05 08:10:00,
2013-02-05 03:15:00,38.9,28.2,29.98,South,190,1.0,3.0,65,0.00,,,0.00,0,WeatherCatV1.10B1570,2013-02-05 08:15:00,
2013-02-05 03:20:00,39.0,28.2,29.98,South,190,2.0,2.0,65,0.00,,,0.00,0,WeatherCatV1.10B1570,2013-02-05 08:20:00,
2013-02-05 03:25:00,39.0,28.2,29.98,South,190,2.0,3.0,65,0.00,,,0.00,0,WeatherCatV1.10B1570,2013-02-05 08:25:00,
2013-02-05 03:30:00,38.9,28.2,29.98,South,190,2.0,3.0,65,0.00,,,0.00,0,WeatherCatV1.10B1570,2013-02-05 08:30:00,
2013-02-05 03:35:00,39.0,28.2,29.98,SSW,199,2.0,3.0,65,0.00,,,0.00,0,WeatherCatV1.10B1570,2013-02-05 08:35:00,
2013-02-05 03:40:00,38.9,28.2,29.97,SSW,193,2.0,3.0,65,0.00,,,0.00,0,WeatherCatV1.10B1570,2013-02-05 08:40:00,
2013-02-05 03:45:00,38.9,28.2,29.97,South,180,2.0,2.0,65,0.00,,,0.00,0,WeatherCatV1.10B1570,2013-02-05 08:45:00,
2013-02-05 03:50:00,38.9,28.2,29.97,South,191,2.0,3.0,65,0.00,,,0.00,0,WeatherCatV1.10B1570,2013-02-05 08:50:00,
2013-02-05 03:55:00,38.9,28.2,29.97,SSW,195,3.0,3.0,65,0.00,,,0.00,0,WeatherCatV1.10B1570,2013-02-05 08:55:00,
2013-02-05 04:00:00,39.0,28.2,29.97,SSW,193,3.0,3.0,65,0.00,,,0.00,0,WeatherCatV1.10B1570,2013-02-05 09:00:00,
2013-02-05 04:05:00,38.9,28.2,29.97,SSW,195,1.0,2.0,65,0.00,,,0.00,0,WeatherCatV1.10B1570,2013-02-05 09:05:00,
2013-02-05 04:10:00,38.9,28.2,29.97,SSW,195,1.0,2.0,65,0.00,,,0.00,0,WeatherCatV1.10B1570,2013-02-05 09:10:00,
2013-02-05 04:15:00,38.8,28.4,29.97,SSW,195,0.0,1.0,66,0.00,,,0.00,0,WeatherCatV1.10B1570,2013-02-05 09:15:00,
2013-02-05 04:20:00,38.7,28.3,29.97,WSW,251,1.0,1.0,66,0.00,,,0.00,0,WeatherCatV1.10B1570,2013-02-05 09:20:00,
2013-02-05 04:25:00,38.5,28.1,29.98,WSW,251,1.0,1.0,66,0.00,,,0.00,0,WeatherCatV1.10B1570,2013-02-05 09:25:00,
2013-02-05 04:30:00,38.4,28.4,29.97,SW,225,1.0,2.0,67,0.00,,,0.00,0,WeatherCatV1.10B1570,2013-02-05 09:30:00,
2013-02-05 04:35:00,38.3,28.3,29.97,SW,225,1.0,2.0,67,0.00,,,0.00,0,WeatherCatV1.10B1570,2013-02-05 09:35:00,
2013-02-05 04:40:00,38.2,28.2,29.97,SW,225,2.0,2.0,67,0.00,,,0.00,0,WeatherCatV1.10B1570,2013-02-05 09:40:00,
2013-02-05 04:42:00,38.3,28.3,29.97,SW,225,1.0,2.0,67,0.00,,,0.00,0,WeatherCatV1.10B1570,2013-02-05 09:42:00,
2013-02-05 04:47:00,38.3,28.3,29.98,SW,225,0.0,1.0,67,0.00,,,0.00,0,WeatherCatV1.10B1570,2013-02-05 09:47:00,
2013-02-05 04:52:00,38.3,28.3,29.98,WSW,250,1.0,2.0,67,0.00,,,0.00,0,WeatherCatV1.10B1570,2013-02-05 09:52:00,
2013-02-05 04:57:00,38.4,28.4,29.98,WSW,250,0.0,2.0,67,0.00,,,0.00,0,WeatherCatV1.10B1570,2013-02-05 09:57:00,
2013-02-05 05:02:00,38.4,28.4,29.98,WSW,250,0.0,0.0,67,0.00,,,0.00,0,WeatherCatV1.10B1570,2013-02-05 10:02:00,
2013-02-05 05:07:00,38.4,28.4,29.98,WSW,250,0.0,0.0,67,0.00,,,0.00,0,WeatherCatV1.10B1570,2013-02-05 10:07:00,
2013-02-05 05:12:00,38.3,28.3,29.98,WSW,250,0.0,0.0,67,0.00,,,0.00,0,WeatherCatV1.10B1570,2013-02-05 10:12:00,
2013-02-05 05:17:00,37.8,28.9,29.98,WSW,250,0.0,0.0,70,0.00,,,0.00,0,WeatherCatV1.10B1570,2013-02-05 10:17:00,
2013-02-05 05:22:00,37.3,29.5,29.98,WSW,250,0.0,0.0,73,0.00,,,0.00,0,WeatherCatV1.10B1570,2013-02-05 10:22:00,
2013-02-05 05:27:00,37.2,28.7,29.98,WSW,250,0.0,0.0,71,0.00,,,0.00,0,WeatherCatV1.10B1570,2013-02-05 10:27:00,
2013-02-05 05:32:00,37.6,28.4,29.98,WSW,250,1.0,1.0,69,0.00,,,0.00,0,WeatherCatV1.10B1570,2013-02-05 10:32:00,
2013-02-05 05:37:00,37.7,28.5,29.98,WSW,250,0.0,0.0,69,0.00,,,0.00,0,WeatherCatV1.10B1570,2013-02-05 10:37:00,
2013-02-05 05:42:00,36.8,29.0,29.98,WSW,250,1.0,2.0,73,0.00,,,0.00,0,WeatherCatV1.10B1570,2013-02-05 10:42:00,
2013-02-05 05:47:00,36.2,29.1,29.98,WSW,250,0.0,0.0,75,0.00,,,0.00,0,WeatherCatV1.10B1570,2013-02-05 10:47:00,
2013-02-05 05:52:00,36.2,28.7,29.98,WSW,250,1.0,1.0,74,0.00,,,0.00,0,WeatherCatV1.10B1570,2013-02-05 10:52:00,
2013-02-05 05:57:00,36.5,29.3,29.98,WSW,250,0.0,0.0,75,0.00,,,0.00,0,WeatherCatV1.10B1570,2013-02-05 10:57:00,
2013-02-05 06:02:00,37.1,28.9,29.98,WSW,250,0.0,1.0,72,0.00,,,0.00,0,WeatherCatV1.10B1570,2013-02-05 11:02:00,
2013-02-05 06:07:00,37.6,29.1,29.98,WSW,250,0.0,0.0,71,0.00,,,0.00,0,WeatherCatV1.10B1570,2013-02-05 11:07:00,
2013-02-05 06:12:00,37.9,29.0,29.99,WSW,250,0.0,1.0,70,0.00,,,0.00,0,WeatherCatV1.10B1570,2013-02-05 11:12:00,
2013-02-05 06:17:00,38.1,28.8,29.99,WSW,248,1.0,2.0,69,0.00,,,0.00,0,WeatherCatV1.10B1570,2013-02-05 11:17:00,
2013-02-05 06:22:00,37.9,29.4,29.99,WSW,248,0.0,0.0,71,0.00,,,0.00,0,WeatherCatV1.10B1570,2013-02-05 11:22:00,
2013-02-05 06:27:00,37.7,29.8,29.98,WSW,248,0.0,0.0,73,0.00,,,0.00,0,WeatherCatV1.10B1570,2013-02-05 11:27:00,
2013-02-05 06:32:00,37.6,29.4,29.98,WSW,248,1.0,1.0,72,0.00,,,0.00,0,WeatherCatV1.10B1570,2013-02-05 11:32:00,
2013-02-05 06:37:00,37.9,29.4,29.98,WSW,248,0.0,0.0,71,0.00,,,0.00,0,WeatherCatV1.10B1570,2013-02-05 11:37:00,
2013-02-05 06:42:00,37.9,29.4,29.98,WSW,248,0.0,0.0,71,0.00,,,0.00,0,WeatherCatV1.10B1570,2013-02-05 11:42:00,
2013-02-05 06:47:00,38.1,29.5,29.99,WSW,248,0.0,0.0,71,0.00,,,0.00,0,WeatherCatV1.10B1570,2013-02-05 11:47:00,
2013-02-05 06:52:00,37.9,30.4,29.99,WSW,248,1.0,2.0,74,0.00,,,0.00,0,WeatherCatV1.10B1570,2013-02-05 11:52:00,
2013-02-05 06:57:00,38.2,29.6,29.99,SW,221,1.0,2.0,71,0.00,,,0.00,0,WeatherCatV1.10B1570,2013-02-05 11:57:00,
2013-02-05 07:02:00,38.5,29.6,30.00,SW,221,0.0,1.0,70,0.00,,,0.00,0,WeatherCatV1.10B1570,2013-02-05 12:02:00,
2013-02-05 07:07:00,39.0,29.3,30.00,WSW,258,0.0,2.0,68,0.00,,,0.00,0,WeatherCatV1.10B1570,2013-02-05 12:07:00,
2013-02-05 07:12:00,39.1,29.8,29.99,WSW,258,0.0,1.0,69,0.00,,,0.00,0,WeatherCatV1.10B1570,2013-02-05 12:12:00,
2013-02-05 07:17:00,38.9,29.6,29.99,WSW,237,0.0,0.0,69,0.00,,,0.00,0,WeatherCatV1.10B1570,2013-02-05 12:17:00,
2013-02-05 07:22:00,39.0,29.3,29.99,WSW,237,1.0,2.0,68,0.00,,,0.00,0,WeatherCatV1.10B1570,2013-02-05 12:22:00,
2013-02-05 07:27:00,39.2,29.5,29.99,WSW,238,1.0,3.0,68,0.00,,,0.00,5,WeatherCatV1.10B1570,2013-02-05 12:27:00,
2013-02-05 07:32:00,39.3,29.6,29.99,WSW,238,1.0,2.0,68,0.00,,,0.00,9,WeatherCatV1.10B1570,2013-02-05 12:32:00,
2013-02-05 07:37:00,39.4,29.7,29.99,SW,220,0.0,3.0,68,0.00,,,0.00,12,WeatherCatV1.10B1570,2013-02-05 12:37:00,
2013-02-05 07:42:00,39.4,29.7,29.99,SW,220,1.0,3.0,68,0.00,,,0.00,16,WeatherCatV1.10B1570,2013-02-05 12:42:00,
2013-02-05 07:47:00,39.6,29.9,29.99,SSW,196,2.0,3.0,68,0.00,,,0.00,21,WeatherCatV1.10B1570,2013-02-05 12:47:00,
2013-02-05 07:52:00,39.7,30.0,29.99,SSW,196,1.0,2.0,68,0.00,,,0.00,26,WeatherCatV1.10B1570,2013-02-05 12:52:00,
2013-02-05 07:57:00,40.0,29.9,30.00,WSW,255,1.0,3.0,67,0.00,,,0.00,25,WeatherCatV1.10B1570,2013-02-05 12:57:00,
2013-02-05 08:02:00,40.0,29.9,30.00,WNW,295,1.0,2.0,67,0.00,,,0.00,28,WeatherCatV1.10B1570,2013-02-05 13:02:00,
2013-02-05 08:07:00,40.0,29.9,30.01,South,191,0.0,3.0,67,0.00,,,0.00,42,WeatherCatV1.10B1570,2013-02-05 13:07:00,
2013-02-05 08:12:00,40.3,30.2,30.01,WSW,245,0.0,0.0,67,0.00,,,0.00,46,WeatherCatV1.10B1570,2013-02-05 13:12:00,
2013-02-05 08:17:00,40.7,30.6,30.01,South,189,2.0,3.0,67,0.00,,,0.00,62,WeatherCatV1.10B1570,2013-02-05 13:17:00,
2013-02-05 08:22:00,41.0,30.9,30.00,South,189,0.0,1.0,67,0.00,,,0.00,125,WeatherCatV1.10B1570,2013-02-05 13:22:00,
2013-02-05 08:27:00,41.4,30.5,29.99,SSW,193,1.0,1.0,65,0.00,,,0.00,86,WeatherCatV1.10B1570,2013-02-05 13:27:00,
2013-02-05 08:32:00,41.8,30.5,30.00,SSW,195,1.0,3.0,64,0.00,,,0.00,102,WeatherCatV1.10B1570,2013-02-05 13:32:00,
2013-02-05 08:37:00,42.0,30.3,30.00,SSW,202,2.0,4.0,63,0.00,,,0.00,70,WeatherCatV1.10B1570,2013-02-05 13:37:00,
2013-02-05 08:42:00,42.0,30.7,30.00,SSW,202,1.0,2.0,64,0.00,,,0.00,77,WeatherCatV1.10B1570,2013-02-05 13:42:00,
2013-02-05 08:47:00,42.1,30.8,30.00,SW,216,1.0,2.0,64,0.00,,,0.00,95,WeatherCatV1.10B1570,2013-02-05 13:47:00,
2013-02-05 08:52:00,42.4,31.1,30.01,SSW,201,2.0,3.0,64,0.00,,,0.00,102,WeatherCatV1.10B1570,2013-02-05 13:52:00,
2013-02-05 08:57:00,42.4,31.1,30.00,SSW,195,1.0,2.0,64,0.00,,,0.00,90,WeatherCatV1.10B1570,2013-02-05 13:57:00,
2013-02-05 09:02:00,42.4,30.7,30.00,SSW,199,2.0,3.0,63,0.00,,,0.00,77,WeatherCatV1.10B1570,2013-02-05 14:02:00,
2013-02-05 09:07:00,42.2,30.9,30.01,SSW,198,2.0,3.0,64,0.00,,,0.00,98,WeatherCatV1.10B1570,2013-02-05 14:07:00,
2013-02-05 09:12:00,42.3,31.0,30.01,SSW,203,2.0,4.0,64,0.00,,,0.00,181,WeatherCatV1.10B1570,2013-02-05 14:12:00,
2013-02-05 09:17:00,42.8,31.1,30.01,SSW,195,0.0,3.0,63,0.00,,,0.00,181,WeatherCatV1.10B1570,2013-02-05 14:17:00,
2013-02-05 09:22:00,43.1,31.0,30.01,South,189,3.0,3.0,62,0.00,,,0.00,165,WeatherCatV1.10B1570,2013-02-05 14:22:00,
2013-02-05 09:27:00,43.3,30.8,30.01,WNW,291,3.0,4.0,61,0.00,,,0.00,193,WeatherCatV1.10B1570,2013-02-05 14:27:00,
2013-02-05 09:32:00,43.7,31.1,30.01,West,263,3.0,5.0,61,0.00,,,0.00,185,WeatherCatV1.10B1570,2013-02-05 14:32:00,
2013-02-05 09:37:00,43.7,30.7,30.01,SSW,193,7.0,7.0,60,0.00,,,0.00,176,WeatherCatV1.10B1570,2013-02-05 14:37:00,
2013-02-05 09:42:00,43.8,30.8,30.00,SSW,192,3.0,3.0,60,0.00,,,0.00,144,WeatherCatV1.10B1570,2013-02-05 14:42:00,
2013-02-05 09:47:00,44.1,31.5,30.00,South,191,1.0,2.0,61,0.00,,,0.00,130,WeatherCatV1.10B1570,2013-02-05 14:47:00,
2013-02-05 09:52:00,44.2,31.2,30.00,SSW,200,3.0,3.0,60,0.00,,,0.00,111,WeatherCatV1.10B1570,2013-02-05 14:52:00,
2013-02-05 09:57:00,44.3,31.3,30.01,SSW,199,1.0,2.0,60,0.00,,,0.00,97,WeatherCatV1.10B1570,2013-02-05 14:57:00,
2013-02-05 10:02:00,44.4,31.4,30.00,SW,221,1.0,2.0,60,0.00,,,0.00,105,WeatherCatV1.10B1570,2013-02-05 15:02:00,
2013-02-05 10:07:00,44.5,31.5,30.02,SW,221,1.0,2.0,60,0.00,,,0.00,100,WeatherCatV1.10B1570,2013-02-05 15:07:00,
2013-02-05 10:12:00,44.7,31.3,30.01,West,265,1.0,4.0,59,0.00,,,0.00,116,WeatherCatV1.10B1570,2013-02-05 15:12:00,
2013-02-05 10:17:00,44.9,31.0,30.01,South,184,2.0,6.0,58,0.00,,,0.00,113,WeatherCatV1.10B1570,2013-02-05 15:17:00,
2013-02-05 10:22:00,45.0,31.1,30.01,WNW,295,2.0,3.0,58,0.00,,,0.00,169,WeatherCatV1.10B1570,2013-02-05 15:22:00,
2013-02-05 10:27:00,45.4,31.9,30.01,SSE,168,1.0,4.0,59,0.00,,,0.00,149,WeatherCatV1.10B1570,2013-02-05 15:27:00,
2013-02-05 10:32:00,45.3,31.4,30.01,SW,230,2.0,4.0,58,0.00,,,0.00,132,WeatherCatV1.10B1570,2013-02-05 15:32:00,
2013-02-05 10:37:00,45.4,31.5,30.01,SW,220,1.0,2.0,58,0.00,,,0.00,139,WeatherCatV1.10B1570,2013-02-05 15:37:00,
2013-02-05 10:42:00,45.5,31.2,30.01,SSW,195,3.0,5.0,57,0.00,,,0.00,172,WeatherCatV1.10B1570,2013-02-05 15:42:00,
2013-02-05 10:47:00,45.6,31.7,30.00,WSW,258,1.0,3.0,58,0.00,,,0.00,221,WeatherCatV1.10B1570,2013-02-05 15:47:00,
2013-02-05 10:52:00,46.0,31.2,30.01,SSW,196,3.0,4.0,56,0.00,,,0.00,272,WeatherCatV1.10B1570,2013-02-05 15:52:00,
2013-02-05 10:57:00,46.5,31.7,30.01,SSW,200,2.0,3.0,56,0.00,,,0.00,264,WeatherCatV1.10B1570,2013-02-05 15:57:00,
2013-02-05 11:02:00,46.7,31.4,30.01,SSW,205,2.0,5.0,55,0.00,,,0.00,272,WeatherCatV1.10B1570,2013-02-05 16:02:00,
2013-02-05 11:07:00,46.8,31.5,30.01,SSW,201,1.0,4.0,55,0.00,,,0.00,299,WeatherCatV1.10B1570,2013-02-05 16:07:00,
2013-02-05 11:12:00,47.3,32.0,30.01,SSW,205,3.0,4.0,55,0.00,,,0.00,255,WeatherCatV1.10B1570,2013-02-05 16:12:00,
2013-02-05 11:17:00,47.6,32.2,30.01,SSW,201,0.0,2.0,55,0.00,,,0.00,364,WeatherCatV1.10B1570,2013-02-05 16:17:00,
2013-02-05 11:22:00,48.2,31.9,30.01,WSW,247,3.0,5.0,53,0.00,,,0.00,279,WeatherCatV1.10B1570,2013-02-05 16:22:00,
2013-02-05 11:27:00,48.1,31.8,30.00,South,190,1.0,8.0,53,0.00,,,0.00,225,WeatherCatV1.10B1570,2013-02-05 16:27:00,
2013-02-05 11:32:00,48.1,31.8,30.00,SSW,195,2.0,3.0,53,0.00,,,0.00,200,WeatherCatV1.10B1570,2013-02-05 16:32:00,
2013-02-05 11:37:00,48.1,31.8,30.01,WNW,287,0.0,5.0,53,0.00,,,0.00,276,WeatherCatV1.10B1570,2013-02-05 16:37:00,
2013-02-05 11:42:00,48.6,32.3,30.01,NW,313,1.0,4.0,53,0.00,,,0.00,425,WeatherCatV1.10B1570,2013-02-05 16:42:00,
2013-02-05 11:47:00,48.8,32.0,30.00,SSW,196,3.0,5.0,52,0.00,,,0.00,343,WeatherCatV1.10B1570,2013-02-05 16:47:00,
2013-02-05 11:52:00,49.1,32.2,30.00,SW,228,1.0,1.0,52,0.00,,,0.00,673,WeatherCatV1.10B1570,2013-02-05 16:52:00,
2013-02-05 11:57:00,50.3,32.9,30.00,WSW,250,3.0,3.0,51,0.00,,,0.00,708,WeatherCatV1.10B1570,2013-02-05 16:57:00,
2013-02-05 12:02:00,50.7,31.7,30.00,WSW,256,3.0,8.0,48,0.00,,,0.00,420,WeatherCatV1.10B1570,2013-02-05 17:02:00,
2013-02-05 12:07:00,50.8,32.3,29.99,SSW,207,0.0,3.0,49,0.00,,,0.00,469,WeatherCatV1.10B1570,2013-02-05 17:07:00,
2013-02-05 12:12:00,51.1,32.1,29.99,SW,232,1.0,6.0,48,0.00,,,0.00,264,WeatherCatV1.10B1570,2013-02-05 17:12:00,
2013-02-05 12:17:00,51.0,32.5,29.99,SW,234,1.0,3.0,49,0.00,,,0.00,422,WeatherCatV1.10B1570,2013-02-05 17:17:00,
2013-02-05 12:22:00,51.4,31.9,29.98,SW,216,0.0,3.0,47,0.00,,,0.00,633,WeatherCatV1.10B1570,2013-02-05 17:22:00,
2013-02-05 12:27:00,52.3,32.1,29.98,WNW,284,4.0,6.0,46,0.00,,,0.00,410,WeatherCatV1.10B1570,2013-02-05 17:27:00,
2013-02-05 12:32:00,52.1,33.0,29.98,West,273,4.0,6.0,48,0.00,,,0.00,701,WeatherCatV1.10B1570,2013-02-05 17:32:00,
2013-02-05 12:37:00,52.3,32.1,29.98,WNW,292,5.0,8.0,46,0.00,,,0.00,649,WeatherCatV1.10B1570,2013-02-05 17:37:00,
2013-02-05 12:42:00,52.4,32.2,29.97,West,272,4.0,6.0,46,0.00,,,0.00,645,WeatherCatV1.10B1570,2013-02-05 17:42:00,
2013-02-05 12:47:00,52.5,32.3,29.97,WNW,286,6.0,6.0,46,0.00,,,0.00,647,WeatherCatV1.10B1570,2013-02-05 17:47:00,
2013-02-05 12:52:00,52.8,32.1,29.97,NNW,338,4.0,7.0,45,0.00,,,0.00,663,WeatherCatV1.10B1570,2013-02-05 17:52:00,
2013-02-05 12:57:00,53.7,32.3,29.97,WNW,294,7.0,7.0,44,0.00,,,0.00,689,WeatherCatV1.10B1570,2013-02-05 17:57:00,
2013-02-05 13:02:00,53.6,32.2,29.96,WNW,285,3.0,5.0,44,0.00,,,0.00,679,WeatherCatV1.10B1570,2013-02-05 18:02:00,
2013-02-05 13:07:00,54.4,32.9,29.96,West,259,3.0,6.0,44,0.00,,,0.00,693,WeatherCatV1.10B1570,2013-02-05 18:07:00,
2013-02-05 13:12:00,54.7,32.6,29.95,SSW,210,2.0,9.0,43,0.00,,,0.00,684,WeatherCatV1.10B1570,2013-02-05 18:12:00,
2013-02-05 13:17:00,55.1,31.8,29.95,SSW,205,1.0,9.0,41,0.00,,,0.00,652,WeatherCatV1.10B1570,2013-02-05 18:17:00,
2013-02-05 13:22:00,55.2,32.5,29.95,SW,231,4.0,5.0,42,0.00,,,0.00,654,WeatherCatV1.10B1570,2013-02-05 18:22:00,
2013-02-05 13:27:00,55.7,33.0,29.95,South,172,3.0,5.0,42,0.00,,,0.00,666,WeatherCatV1.10B1570,2013-02-05 18:27:00,
2013-02-05 13:32:00,56.6,32.6,29.94,SW,232,4.0,5.0,40,0.00,,,0.00,643,WeatherCatV1.10B1570,2013-02-05 18:32:00,
2013-02-05 13:37:00,56.9,32.8,29.94,SW,216,3.0,4.0,40,0.00,,,0.00,631,WeatherCatV1.10B1570,2013-02-05 18:37:00,
2013-02-05 13:42:00,56.1,32.1,29.94,West,281,2.0,7.0,40,0.00,,,0.00,619,WeatherCatV1.10B1570,2013-02-05 18:42:00,
2013-02-05 13:47:00,56.9,33.4,29.94,SSW,211,5.0,7.0,41,0.00,,,0.00,610,WeatherCatV1.10B1570,2013-02-05 18:47:00,
2013-02-05 13:52:00,56.6,31.9,29.93,South,178,3.0,4.0,39,0.00,,,0.00,603,WeatherCatV1.10B1570,2013-02-05 18:52:00,
2013-02-05 13:57:00,57.0,32.3,29.93,WSW,241,1.0,2.0,39,0.00,,,0.00,598,WeatherCatV1.10B1570,2013-02-05 18:57:00,
2013-02-05 14:02:00,57.0,32.9,29.93,WNW,290,5.0,8.0,40,0.00,,,0.00,587,WeatherCatV1.10B1570,2013-02-05 19:02:00,
2013-02-05 14:07:00,56.8,32.1,29.93,SSW,202,3.0,5.0,39,0.00,,,0.00,578,WeatherCatV1.10B1570,2013-02-05 19:07:00,
2013-02-05 14:12:00,57.1,32.4,29.93,SSW,211,5.0,7.0,39,0.00,,,0.00,571,WeatherCatV1.10B1570,2013-02-05 19:12:00,
2013-02-05 14:17:00,56.8,31.5,29.93,SW,234,3.0,10.0,38,0.00,,,0.00,564,WeatherCatV1.10B1570,2013-02-05 19:17:00,
2013-02-05 14:22:00,56.8,32.1,29.93,WSW,244,4.0,8.0,39,0.00,,,0.00,555,WeatherCatV1.10B1570,2013-02-05 19:22:00,
2013-02-05 14:27:00,57.2,32.5,29.93,SSW,197,4.0,5.0,39,0.00,,,0.00,548,WeatherCatV1.10B1570,2013-02-05 19:27:00,
2013-02-05 14:32:00,57.5,32.1,29.93,SSW,209,1.0,4.0,38,0.00,,,0.00,540,WeatherCatV1.10B1570,2013-02-05 19:32:00,
2013-02-05 14:37:00,57.7,32.3,29.93,SW,214,4.0,8.0,38,0.00,,,0.00,538,WeatherCatV1.10B1570,2013-02-05 19:37:00,
2013-02-05 14:42:00,57.2,31.8,29.93,SSW,199,4.0,8.0,38,0.00,,,0.00,559,WeatherCatV1.10B1570,2013-02-05 19:42:00,
2013-02-05 14:47:00,57.3,32.6,29.93,SSW,207,9.0,11.0,39,0.00,,,0.00,536,WeatherCatV1.10B1570,2013-02-05 19:47:00,
2013-02-05 14:52:00,57.5,32.1,29.93,WNW,294,2.0,9.0,38,0.00,,,0.00,466,WeatherCatV1.10B1570,2013-02-05 19:52:00,
2013-02-05 14:57:00,57.5,32.1,29.93,South,188,3.0,9.0,38,0.00,,,0.00,504,WeatherCatV1.10B1570,2013-02-05 19:57:00,
2013-02-05 15:02:00,57.6,32.8,29.93,SSW,210,3.0,5.0,39,0.00,,,0.00,476,WeatherCatV1.10B1570,2013-02-05 20:02:00,
2013-02-05 15:07:00,57.9,33.1,29.93,SW,220,5.0,6.0,39,0.00,,,0.00,462,WeatherCatV1.10B1570,2013-02-05 20:07:00,
2013-02-05 15:12:00,57.8,33.0,29.93,SW,220,4.0,7.0,39,0.00,,,0.00,446,WeatherCatV1.10B1570,2013-02-05 20:12:00,
2013-02-05 15:17:00,57.8,33.0,29.93,WSW,251,3.0,7.0,39,0.00,,,0.00,431,WeatherCatV1.10B1570,2013-02-05 20:17:00,
2013-02-05 15:22:00,58.1,33.3,29.93,South,179,3.0,4.0,39,0.00,,,0.00,417,WeatherCatV1.10B1570,2013-02-05 20:22:00,
2013-02-05 15:27:00,57.8,32.4,29.93,SW,219,3.0,7.0,38,0.00,,,0.00,406,WeatherCatV1.10B1570,2013-02-05 20:27:00,
2013-02-05 15:32:00,57.9,32.5,29.93,WSW,255,3.0,6.0,38,0.00,,,0.00,390,WeatherCatV1.10B1570,2013-02-05 20:32:00,
2013-02-05 15:37:00,57.8,33.0,29.93,SSW,212,2.0,6.0,39,0.00,,,0.00,380,WeatherCatV1.10B1570,2013-02-05 20:37:00,
2013-02-05 15:42:00,58.2,33.4,29.93,WSW,252,0.0,5.0,39,0.00,,,0.00,369,WeatherCatV1.10B1570,2013-02-05 20:42:00,
2013-02-05 15:47:00,58.6,33.1,29.93,SW,219,4.0,6.0,38,0.00,,,0.00,357,WeatherCatV1.10B1570,2013-02-05 20:47:00,
2013-02-05 15:52:00,58.1,33.3,29.93,SW,215,2.0,5.0,39,0.00,,,0.00,348,WeatherCatV1.10B1570,2013-02-05 20:52:00,
2013-02-05 15:57:00,58.2,33.4,29.93,West,279,0.0,5.0,39,0.00,,,0.00,343,WeatherCatV1.10B1570,2013-02-05 20:57:00,
2013-02-05 16:02:00,58.2,33.4,29.93,West,265,2.0,5.0,39,0.00,,,0.00,267,WeatherCatV1.10B1570,2013-02-05 21:02:00,
2013-02-05 16:07:00,58.4,33.5,29.93,South,190,1.0,8.0,39,0.00,,,0.00,323,WeatherCatV1.10B1570,2013-02-05 21:07:00,
2013-02-05 16:12:00,58.1,33.9,29.93,SW,217,2.0,8.0,40,0.00,,,0.00,287,WeatherCatV1.10B1570,2013-02-05 21:12:00,
2013-02-05 16:17:00,58.0,33.2,29.93,SSW,197,2.0,4.0,39,0.00,,,0.00,216,WeatherCatV1.10B1570,2013-02-05 21:17:00,
2013-02-05 16:22:00,58.0,33.2,29.93,SSW,196,1.0,8.0,39,0.00,,,0.00,176,WeatherCatV1.10B1570,2013-02-05 21:22:00,
2013-02-05 16:27:00,58.1,33.9,29.93,SW,228,0.0,6.0,40,0.00,,,0.00,169,WeatherCatV1.10B1570,2013-02-05 21:27:00,
2013-02-05 16:32:00,58.1,33.9,29.93,SSW,203,4.0,4.0,40,0.00,,,0.00,127,WeatherCatV1.10B1570,2013-02-05 21:32:00,
2013-02-05 16:37:00,58.2,34.0,29.93,West,274,2.0,3.0,40,0.00,,,0.00,153,WeatherCatV1.10B1570,2013-02-05 21:37:00,
2013-02-05 16:42:00,58.3,34.1,29.93,WSW,251,4.0,4.0,40,0.00,,,0.00,105,WeatherCatV1.10B1570,2013-02-05 21:42:00,
2013-02-05 16:47:00,58.2,34.0,29.93,West,276,1.0,3.0,40,0.00,,,0.00,100,WeatherCatV1.10B1570,2013-02-05 21:47:00,
2013-02-05 16:52:00,58.2,33.4,29.93,WSW,251,0.0,6.0,39,0.00,,,0.00,97,WeatherCatV1.10B1570,2013-02-05 21:52:00,
2013-02-05 16:57:00,58.0,33.8,29.93,SW,228,2.0,3.0,40,0.00,,,0.00,79,WeatherCatV1.10B1570,2013-02-05 21:57:00,
2013-02-05 17:02:00,57.8,33.6,29.93,West,272,8.0,8.0,40,0.00,,,0.00,53,WeatherCatV1.10B1570,2013-02-05 22:02:00,
2013-02-05 17:07:00,57.6,34.1,29.93,West,263,0.0,3.0,41,0.00,,,0.00,53,WeatherCatV1.10B1570,2013-02-05 22:07:00,
2013-02-05 17:12:00,57.4,33.9,29.94,WSW,257,1.0,2.0,41,0.00,,,0.00,47,WeatherCatV1.10B1570,2013-02-05 22:12:00,
2013-02-05 17:17:00,57.2,34.3,29.94,WNW,282,7.0,7.0,42,0.00,,,0.00,35,WeatherCatV1.10B1570,2013-02-05 22:17:00,
2013-02-05 17:22:00,57.1,34.8,29.93,West,275,1.0,5.0,43,0.00,,,0.00,32,WeatherCatV1.10B1570,2013-02-05 22:22:00,
2013-02-05 17:27:00,56.9,34.6,29.93,NW,310,3.0,5.0,43,0.00,,,0.00,25,WeatherCatV1.10B1570,2013-02-05 22:27:00,
2013-02-05 17:32:00,56.6,34.9,29.93,NNW,342,6.0,6.0,44,0.00,,,0.00,19,WeatherCatV1.10B1570,2013-02-05 22:32:00,
2013-02-05 17:37:00,56.3,35.2,29.94,NW,326,1.0,6.0,45,0.00,,,0.00,11,WeatherCatV1.10B1570,2013-02-05 22:37:00,
2013-02-05 17:42:00,55.9,35.4,29.94,North,354,4.0,8.0,46,0.00,,,0.00,7,WeatherCatV1.10B1570,2013-02-05 22:42:00,
2013-02-05 17:47:00,55.5,35.6,29.94,NW,322,3.0,5.0,47,0.00,,,0.00,5,WeatherCatV1.10B1570,2013-02-05 22:47:00,
2013-02-05 17:52:00,55.0,35.1,29.95,West,279,3.0,9.0,47,0.00,,,0.00,0,WeatherCatV1.10B1570,2013-02-05 22:52:00,
2013-02-05 17:57:00,54.5,35.2,29.95,NW,310,3.0,5.0,48,0.00,,,0.00,0,WeatherCatV1.10B1570,2013-02-05 22:57:00,
2013-02-05 18:02:00,54.1,34.8,29.95,WNW,294,2.0,5.0,48,0.00,,,0.00,0,WeatherCatV1.10B1570,2013-02-05 23:02:00,
2013-02-05 18:07:00,53.7,34.5,29.95,WNW,294,2.0,6.0,48,0.00,,,0.00,0,WeatherCatV1.10B1570,2013-02-05 23:07:00,
2013-02-05 18:12:00,53.4,34.2,29.95,NNW,340,3.0,3.0,48,0.00,,,0.00,0,WeatherCatV1.10B1570,2013-02-05 23:12:00,
2013-02-05 18:17:00,53.1,34.4,29.96,NNW,338,1.0,4.0,49,0.00,,,0.00,0,WeatherCatV1.10B1570,2013-02-05 23:17:00,
2013-02-05 18:22:00,52.7,34.6,29.96,NNW,336,0.0,2.0,50,0.00,,,0.00,0,WeatherCatV1.10B1570,2013-02-05 23:22:00,
2013-02-05 18:27:00,52.3,34.2,29.96,NNW,327,1.0,6.0,50,0.00,,,0.00,0,WeatherCatV1.10B1570,2013-02-05 23:27:00,
2013-02-05 18:32:00,52.0,34.4,29.96,NW,311,1.0,3.0,51,0.00,,,0.00,0,WeatherCatV1.10B1570,2013-02-05 23:32:00,
2013-02-05 18:37:00,51.8,34.3,29.96,NW,326,5.0,5.0,51,0.00,,,0.00,0,WeatherCatV1.10B1570,2013-02-05 23:37:00,
2013-02-05 18:42:00,51.5,34.0,29.96,NW,318,2.0,2.0,51,0.00,,,0.00,0,WeatherCatV1.10B1570,2013-02-05 23:42:00,
2013-02-05 18:47:00,51.2,34.2,29.97,NNW,346,3.0,4.0,52,0.00,,,0.00,0,WeatherCatV1.10B1570,2013-02-05 23:47:00,
2013-02-05 18:52:00,50.9,33.9,29.97,NNW,347,3.0,3.0,52,0.00,,,0.00,0,WeatherCatV1.10B1570,2013-02-05 23:52:00,
2013-02-05 18:57:00,50.7,34.2,29.97,NW,310,1.0,3.0,53,0.00,,,0.00,0,WeatherCatV1.10B1570,2013-02-05 23:57:00,
2013-02-05 19:02:00,50.5,34.0,29.97,WNW,298,1.0,4.0,53,0.00,,,0.00,0,WeatherCatV1.10B1570,2013-02-06 00:02:00,
2013-02-05 19:07:00,50.3,33.8,29.97,WNW,291,3.0,4.0,53,0.00,,,0.00,0,WeatherCatV1.10B1570,2013-02-06 00:07:00,
2013-02-05 19:12:00,50.1,33.6,29.98,NW,309,0.0,2.0,53,0.00,,,0.00,0,WeatherCatV1.10B1570,2013-02-06 00:12:00,
2013-02-05 19:17:00,49.9,33.9,29.98,WNW,284,0.0,1.0,54,0.00,,,0.00,0,WeatherCatV1.10B1570,2013-02-06 00:17:00,
2013-02-05 19:22:00,49.7,33.7,29.98,WNW,295,0.0,2.0,54,0.00,,,0.00,0,WeatherCatV1.10B1570,2013-02-06 00:22:00,
2013-02-05 19:27:00,49.4,33.5,29.98,NW,313,3.0,3.0,54,0.00,,,0.00,0,WeatherCatV1.10B1570,2013-02-06 00:27:00,
2013-02-05 19:32:00,49.1,33.6,29.98,West,272,2.0,2.0,55,0.00,,,0.00,0,WeatherCatV1.10B1570,2013-02-06 00:32:00,
2013-02-05 19:37:00,48.7,33.3,29.98,NW,311,1.0,3.0,55,0.00,,,0.00,0,WeatherCatV1.10B1570,2013-02-06 00:37:00,
2013-02-05 19:42:00,48.5,33.5,29.98,WNW,285,2.0,2.0,56,0.00,,,0.00,0,WeatherCatV1.10B1570,2013-02-06 00:42:00,
2013-02-05 19:47:00,48.5,33.5,29.98,WSW,256,1.0,2.0,56,0.00,,,0.00,0,WeatherCatV1.10B1570,2013-02-06 00:47:00,
2013-02-05 19:52:00,48.4,33.4,29.98,WSW,257,1.0,2.0,56,0.00,,,0.00,0,WeatherCatV1.10B1570,2013-02-06 00:52:00,
2013-02-05 19:57:00,47.7,33.7,29.99,WSW,257,0.0,1.0,58,0.00,,,0.00,0,WeatherCatV1.10B1570,2013-02-06 00:57:00,
2013-02-05 20:02:00,47.1,33.1,29.99,WSW,257,0.0,1.0,58,0.00,,,0.00,0,WeatherCatV1.10B1570,2013-02-06 01:02:00,
2013-02-05 20:07:00,47.4,32.9,29.98,WSW,257,0.0,0.0,57,0.00,,,0.00,0,WeatherCatV1.10B1570,2013-02-06 01:07:00,
2013-02-05 20:12:00,47.6,33.1,29.98,WSW,257,0.0,0.0,57,0.00,,,0.00,0,WeatherCatV1.10B1570,2013-02-06 01:12:00,
2013-02-05 20:17:00,46.9,33.3,29.98,WSW,257,1.0,2.0,59,0.00,,,0.00,0,WeatherCatV1.10B1570,2013-02-06 01:17:00,
2013-02-05 20:22:00,46.6,33.0,29.99,WSW,257,0.0,2.0,59,0.00,,,0.00,0,WeatherCatV1.10B1570,2013-02-06 01:22:00,
2013-02-05 20:27:00,46.3,33.2,29.99,WSW,257,1.0,2.0,60,0.00,,,0.00,0,WeatherCatV1.10B1570,2013-02-06 01:27:00,
2013-02-05 20:32:00,45.4,33.2,29.99,WSW,257,1.0,1.0,62,0.00,,,0.00,0,WeatherCatV1.10B1570,2013-02-06 01:32:00,
2013-02-05 20:37:00,45.6,32.9,29.99,WSW,257,0.0,0.0,61,0.00,,,0.00,0,WeatherCatV1.10B1570,2013-02-06 01:37:00,
2013-02-05 20:42:00,45.4,33.2,29.99,WSW,257,1.0,1.0,62,0.00,,,0.00,0,WeatherCatV1.10B1570,2013-02-06 01:42:00,
2013-02-05 20:47:00,44.5,33.1,29.99,WSW,257,0.0,1.0,64,0.00,,,0.00,0,WeatherCatV1.10B1570,2013-02-06 01:47:00,
2013-02-05 20:52:00,44.4,33.0,29.99,WSW,257,0.0,1.0,64,0.00,,,0.00,0,WeatherCatV1.10B1570,2013-02-06 01:52:00,
2013-02-05 20:57:00,43.7,33.1,29.99,WSW,257,1.0,1.0,66,0.00,,,0.00,0,WeatherCatV1.10B1570,2013-02-06 01:57:00,
2013-02-05 21:02:00,43.7,33.1,29.99,WSW,257,0.0,0.0,66,0.00,,,0.00,0,WeatherCatV1.10B1570,2013-02-06 02:02:00,
2013-02-05 21:07:00,43.5,33.3,29.99,WSW,257,0.0,0.0,67,0.00,,,0.00,0,WeatherCatV1.10B1570,2013-02-06 02:07:00,
2013-02-05 21:12:00,43.4,32.8,29.99,WSW,257,0.0,0.0,66,0.00,,,0.00,0,WeatherCatV1.10B1570,2013-02-06 02:12:00,
2013-02-05 21:17:00,43.0,32.8,30.00,WSW,257,0.0,2.0,67,0.00,,,0.00,0,WeatherCatV1.10B1570,2013-02-06 02:17:00,
2013-02-05 21:22:00,44.1,33.1,30.00,SW,217,1.0,3.0,65,0.00,,,0.00,0,WeatherCatV1.10B1570,2013-02-06 02:22:00,
2013-02-05 21:27:00,43.9,32.9,29.99,SW,233,2.0,3.0,65,0.00,,,0.00,0,WeatherCatV1.10B1570,2013-02-06 02:27:00,
2013-02-05 21:32:00,43.8,32.8,29.99,SW,234,0.0,0.0,65,0.00,,,0.00,0,WeatherCatV1.10B1570,2013-02-06 02:32:00,
2013-02-05 21:37:00,43.4,32.4,30.00,SW,234,0.0,0.0,65,0.00,,,0.00,0,WeatherCatV1.10B1570,2013-02-06 02:37:00,
2013-02-05 21:42:00,43.4,32.4,30.00,SW,234,1.0,2.0,65,0.00,,,0.00,0,WeatherCatV1.10B1570,2013-02-06 02:42:00,
2013-02-05 21:47:00,44.0,32.6,30.00,West,263,0.0,2.0,64,0.00,,,0.00,0,WeatherCatV1.10B1570,2013-02-06 02:47:00,
2013-02-05 21:52:00,44.1,32.7,30.00,West,263,1.0,1.0,64,0.00,,,0.00,0,WeatherCatV1.10B1570,2013-02-06 02:52:00,
2013-02-05 21:57:00,43.4,32.8,30.00,West,263,0.0,0.0,66,0.00,,,0.00,0,WeatherCatV1.10B1570,2013-02-06 02:57:00,
2013-02-05 22:02:00,41.8,32.4,30.00,West,263,1.0,2.0,69,0.00,,,0.00,0,WeatherCatV1.10B1570,2013-02-06 03:02:00,
2013-02-05 22:07:00,41.2,32.5,30.00,West,263,0.0,0.0,71,0.00,,,0.00,0,WeatherCatV1.10B1570,2013-02-06 03:07:00,
2013-02-05 22:12:00,42.0,32.2,30.00,West,263,0.0,0.0,68,0.00,,,0.00,0,WeatherCatV1.10B1570,2013-02-06 03:12:00,
2013-02-05 22:17:00,41.9,32.5,30.00,West,263,1.0,1.0,69,0.00,,,0.00,0,WeatherCatV1.10B1570,2013-02-06 03:17:00,
2013-02-05 22:22:00,40.3,32.3,30.00,West,263,0.0,0.0,73,0.00,,,0.00,0,WeatherCatV1.10B1570,2013-02-06 03:22:00,
2013-02-05 22:27:00,40.5,32.5,30.00,West,263,0.0,0.0,73,0.00,,,0.00,0,WeatherCatV1.10B1570,2013-02-06 03:27:00,
2013-02-05 22:32:00,40.6,32.3,30.00,West,263,0.0,0.0,72,0.00,,,0.00,0,WeatherCatV1.10B1570,2013-02-06 03:32:00,
2013-02-05 22:37:00,40.6,32.3,30.00,West,263,0.0,0.0,72,0.00,,,0.00,0,WeatherCatV1.10B1570,2013-02-06 03:37:00,
2013-02-05 22:42:00,39.7,32.1,30.00,West,263,0.0,0.0,74,0.00,,,0.00,0,WeatherCatV1.10B1570,2013-02-06 03:42:00,
2013-02-05 22:47:00,39.8,31.9,30.00,West,263,0.0,0.0,73,0.00,,,0.00,0,WeatherCatV1.10B1570,2013-02-06 03:47:00,
2013-02-05 22:52:00,39.8,31.9,30.00,West,263,0.0,0.0,73,0.00,,,0.00,0,WeatherCatV1.10B1570,2013-02-06 03:52:00,
2013-02-05 22:57:00,39.8,31.9,30.00,West,263,0.0,0.0,73,0.00,,,0.00,0,WeatherCatV1.10B1570,2013-02-06 03:57:00,
2013-02-05 23:02:00,40.0,32.1,30.00,West,263,0.0,0.0,73,0.00,,,0.00,0,WeatherCatV1.10B1570,2013-02-06 04:02:00,
2013-02-05 23:07:00,39.3,32.0,30.00,West,263,1.0,1.0,75,0.00,,,0.00,0,WeatherCatV1.10B1570,2013-02-06 04:07:00,
2013-02-05 23:12:00,38.3,32.1,30.00,West,263,0.0,0.0,78,0.00,,,0.00,0,WeatherCatV1.10B1570,2013-02-06 04:12:00,
2013-02-05 23:17:00,38.1,31.9,30.00,West,263,1.0,1.0,78,0.00,,,0.00,0,WeatherCatV1.10B1570,2013-02-06 04:17:00,
2013-02-05 23:22:00,38.5,31.9,30.00,West,263,1.0,1.0,77,0.00,,,0.00,0,WeatherCatV1.10B1570,2013-02-06 04:22:00,
2013-02-05 23:27:00,37.7,31.8,30.01,West,263,1.0,2.0,79,0.00,,,0.00,0,WeatherCatV1.10B1570,2013-02-06 04:27:00,
2013-02-05 23:32:00,38.4,31.8,30.01,West,263,0.0,0.0,77,0.00,,,0.00,0,WeatherCatV1.10B1570,2013-02-06 04:32:00,
2013-02-05 23:37:00,38.9,32.0,30.01,West,263,0.0,0.0,76,0.00,,,0.00,0,WeatherCatV1.10B1570,2013-02-06 04:37:00,
2013-02-05 23:42:00,38.2,32.0,30.01,West,263,0.0,1.0,78,0.00,,,0.00,0,WeatherCatV1.10B1570,2013-02-06 04:42:00,
2013-02-05 23:47:00,37.9,31.7,30.01,West,263,0.0,0.0,78,0.00,,,0.00,0,WeatherCatV1.10B1570,2013-02-06 04:47:00,
2013-02-05 23:52:00,37.9,31.7,30.01,West,263,0.0,0.0,78,0.00,,,0.00,0,WeatherCatV1.10B1570,2013-02-06 04:52:00,
2013-02-05 23:57:00,37.9,31.3,30.01,West,262,2.0,2.0,77,0.00,,,0.00,0,WeatherCatV1.10B1570,2013-02-06 04:57:00,